Regional Weather Roundup
Issued by NWS

Home | Current Version | Previous Version | Text Only | Print | Product List | Glossary Off
Versions: 1 2 3 4 5 6 7 8 9 10 11 12 13 14 15 16 17 18 19 20 21 22 23 24 25 26 27 28 29 30 31 32 33 34 35 36 37 38 39 40 41 42 43 44 45 46 47 48 49 50

000
ASUS43 KLOT 220412
RWRIL

ILLINOIS REGIONAL WEATHER ROUNDUP
NATIONAL WEATHER SERVICE CHICAGO/ROMEOVILLE IL
1100 PM CDT THU MAY 21 2015

NOTE: "FAIR" INDICATES FEW OR NO CLOUDS BELOW 12,000 FEET WITH NO
SIGNIFICANT WEATHER AND/OR OBSTRUCTIONS TO VISIBILITY.

* THESE STATIONS ARE NOT UNDER NWS QUALITY CONTROL. THEY ALSO MAY NOT
  REPORT WEATHER SUCH AS PRECIPITATION OR FOG.

ILZ001-002-007-009-015-016-024-220500-
NORTHWEST ILLINOIS

CITY           SKY/WX    TMP DP  RH WIND       PRES   REMARKS
MOLINE         CLEAR     61  44  53 SW8       30.04R
STERLING*      CLEAR     59  41  51 CALM      30.04S
SAVANNA*       CLEAR     61  43  52 W5        30.03R
$$

ILZ003-004-008-010-011-017-018-220500-
NORTH CENTRAL ILLINOIS

CITY           SKY/WX    TMP DP  RH WIND       PRES   REMARKS
ROCKFORD       CLEAR     60  40  47 SW9       30.04S
FREEPORT*      CLEAR     57  42  57 SW10      30.04S
ROCHELLE*      CLEAR     55  42  63 SW8       30.04S
DE KALB*       CLEAR     56  39  52 SW7       30.04S
PERU*          PTCLDY    58  43  57 SW9       30.07S
$$

ILZ005-006-012>014-019>023-220500-
NORTHEAST ILLINOIS

CITY           SKY/WX    TMP DP  RH WIND       PRES   REMARKS
CHICAGO-OHARE  CLEAR     59  38  45 SW6       30.02S
CHICAGO-MIDWAY CLEAR     60  38  43 S7        30.03S
AURORA         CLEAR     56  39  53 SW8       30.04S
LANSING*       CLEAR     49  37  62 SW3       30.04S
JOLIET*        CLEAR     55  42  60 SW3       30.05R
WAUKEGAN       PTCLDY    59  42  53 VRB6      29.99S
DUPAGE AIRPORT CLEAR     56  40  55 SW10      30.02S
KANKAKEE*      CLEAR     54  40  60 SW7       30.07S
WHEELING       CLEAR     59  38  45 SW5       30.03R
MORRIS*        CLEAR     54  40  59 SW7       30.02F
ROMEOVILLE*    CLEAR     57  37  47 SW9       30.04S
NORTHERLY ISL    N/A     63  35  35 SW3         N/A
$$

LMZ740>746-220500-
SOUTHERN LAKE MICHIGAN

STATION/POSITION SKY/WX   TEMP    WIND        PRES    VSBY  WAVE
                          AIR SEA DIR/SP/G                  HT/PER
                          (F)     (DEG/KT/KT) (MB)    (MI)  (FT/S)
SOUTHERN BUOY              47 38  270/ 10/ 12 1016.9R         1/ 4
HARRISON CRIB              65     250/ 15/ 17   N/A
BURNHAM HARBOR             63     230/  7       N/A
CALUMET HARBOR             62     220/  3/  6   N/A
BURNS HARBOR               61     200/  8/ 10 1017.6R
MICHIGAN CITY              60     190/ 12/ 13   N/A
MICHIGAN CITY 6N           55 51  210/  8/ 10   N/A           1
ST. JOSEPH                 56 53  230/ 12/ 14   N/A           1
$$

ILZ025>027-034>036-040-047-049-050-058-095>099-220500-
WEST-CENTRAL ILLINOIS

CITY           SKY/WX    TMP DP  RH WIND       PRES   REMARKS
QUINCY         CLEAR     56  46  69 SW7       30.14R
GALESBURG*     CLEAR     57  47  69 SW12      30.08S
MACOMB*        PTCLDY    59  47  66 SW9       30.12S
JACKSONVILLE*  CLEAR     59  46  61 SW8       30.14S
PITTSFIELD*    CLEAR     58  47  65 SW7       30.16S
$$

ILZ028>032-037-038-041>044-048-051>054-059>061-220500-
CENTRAL ILLINOIS

CITY           SKY/WX    TMP DP  RH WIND       PRES   REMARKS
PONTIAC        CLEAR     60  43  53 SW13      30.09S
BLOOMINGTON    CLEAR     57  44  62 SW12      30.12S
DECATUR        CLEAR     53  44  71 SW8       30.14S
PEORIA         CLEAR     57  46  66 SW8       30.10S
LACON*         PTCLDY    56  45  65 SW5       30.07S
LINCOLN*       CLEAR     58  43  56 CALM      30.12S
SPRINGFIELD    CLEAR     58  43  57 SW7       30.14S
TAYLORVILLE    CLEAR     54  45  71 SW7       30.15S
$$

ILZ033-039-045-046-055>057-062-063-220500-
EAST-CENTRAL ILLINOIS

CITY           SKY/WX    TMP DP  RH WIND       PRES   REMARKS
CHAMPAIGN      CLEAR     54  41  61 SW12      30.13S
DANVILLE*      CLEAR     51  41  67 SW6       30.10S
RANTOUL*       CLEAR     56  40  54 SW9       30.11F
MATTOON        CLEAR     54  42  64 SW7       30.14S
PARIS*         CLEAR     52  42  68 SW9       30.15S
$$

ILZ079-100>102-220500-
SOUTHWEST ILLINOIS

CITY           SKY/WX    TMP DP  RH WIND       PRES   REMARKS
ALTON          CLEAR     53  49  86 SW3       30.18S
BELLEVILLE     CLEAR     51  46  84 CALM      30.17F
CAHOKIA*       CLEAR     50  45  83 CALM      30.17F
SPARTA*        CLEAR     48  44  87 CALM      30.21S
$$

ILZ064>066-069>071-074>076-080>082-084>086-088>090-092>094-220500-
SOUTH-CENTRAL ILLINOIS

CITY           SKY/WX    TMP DP  RH WIND       PRES   REMARKS
CARBONDALE     CLEAR     46  44  93 S3        30.20F
CAIRO*         CLEAR     49  48  99 CALM      30.22F
EFFINGHAM*     CLEAR     51  41  69 S3        30.18F
MARION         CLEAR     48  46  93 CALM      30.21S
MT. VERNON     CLEAR     45  39  81 CALM      30.20F
CENTRALIA*     CLEAR     48  43  84 SW3       30.19S
SALEM*         CLEAR     51  44  77 S3        30.19S
METROPOLIS*    CLEAR     48  48 100 CALM      30.21S
$$

ILZ067-068-072-073-078-083-087-091-220500-
SOUTHEAST ILLINOIS

CITY           SKY/WX    TMP DP  RH WIND       PRES   REMARKS
FLORA*         CLEAR     48  43  82 SW6       30.19S
FAIRFIELD*     CLEAR     49  46  88 CALM      30.18F
HARRISBURG*    CLEAR     48  48  99 CALM      30.22S
ROBINSON*      CLEAR     51  44  78 SW7       30.18S
CARMI*         CLEAR     47  42  81 SW3       30.20S
$$

ABBREVIATIONS USED IN REMARKS
   TC - TEMPERATURE IN CELSIUS
  WCI - WIND CHILL INDEX
   HX - HEAT INDEX
  VSB - VISIBILITY
$$




USA.gov is the U.S. government's official web portal to all federal, state and local government web resources and services.